TimePDT,TemperatureF,Dew PointF,Humidity,Sea Level PressureIn,VisibilityMPH,Wind Direction,Wind SpeedMPH,Gust SpeedMPH,PrecipitationIn,Events,Conditions,WindDirDegrees,DateUTC
12:15 AM,26.6,26.6,100,30.28,5.0,SE,8.1,-,N/A,,Clear,130,2013-03-10 08:15:00
12:35 AM,28.4,28.4,100,30.29,7.0,SE,6.9,-,N/A,,Clear,130,2013-03-10 08:35:00
12:55 AM,28.4,26.6,93,30.29,7.0,SE,5.8,-,N/A,,Clear,140,2013-03-10 08:55:00
1:15 AM,26.6,26.6,100,30.29,8.0,SE,3.5,-,N/A,,Clear,140,2013-03-10 09:15:00
1:35 AM,26.6,26.6,100,30.30,10.0,Calm,Calm,-,N/A,,Clear,0,2013-03-10 09:35:00
1:55 AM,26.6,26.6,100,30.29,10.0,Calm,Calm,-,N/A,,Clear,0,2013-03-10 09:55:00
3:15 AM,26.6,26.6,100,30.28,10.0,SE,10.4,-,N/A,,Clear,130,2013-03-10 10:15:00
3:35 AM,26.6,26.6,100,30.28,10.0,South,4.6,-,N/A,,Clear,170,2013-03-10 10:35:00
3:55 AM,26.6,24.8,93,30.28,10.0,NNE,3.5,-,N/A,,Clear,30,2013-03-10 10:55:00
4:15 AM,24.8,24.8,100,30.28,10.0,ENE,3.5,-,N/A,,Clear,70,2013-03-10 11:15:00
4:35 AM,24.8,23.0,93,30.28,10.0,SE,6.9,-,N/A,,Clear,140,2013-03-10 11:35:00
5:15 AM,24.8,24.8,100,30.29,10.0,Calm,Calm,-,N/A,,Clear,0,2013-03-10 12:15:00
5:35 AM,24.8,23.0,93,30.29,10.0,SE,9.2,-,N/A,,Clear,130,2013-03-10 12:35:00
5:55 AM,26.6,24.8,93,30.29,10.0,ENE,3.5,-,N/A,,Clear,60,2013-03-10 12:55:00
6:15 AM,24.8,24.8,100,30.29,10.0,SSE,5.8,-,N/A,,Clear,150,2013-03-10 13:15:00
6:35 AM,26.6,24.8,93,30.30,10.0,ESE,8.1,-,N/A,,Clear,120,2013-03-10 13:35:00
6:55 AM,24.8,23.0,93,30.30,10.0,ESE,3.5,-,N/A,,Clear,120,2013-03-10 13:55:00
7:15 AM,24.8,23.0,93,30.31,10.0,SE,5.8,-,N/A,,Clear,140,2013-03-10 14:15:00
7:35 AM,26.6,23.0,86,30.31,10.0,ESE,6.9,-,N/A,,Clear,120,2013-03-10 14:35:00
7:55 AM,26.6,24.8,93,30.32,10.0,SE,11.5,-,N/A,,Clear,130,2013-03-10 14:55:00
8:15 AM,30.2,26.6,86,30.33,10.0,ESE,6.9,-,N/A,,Clear,110,2013-03-10 15:15:00
8:35 AM,32.0,26.6,80,30.33,10.0,ESE,4.6,-,N/A,,Clear,110,2013-03-10 15:35:00
8:55 AM,32.0,28.4,87,30.33,10.0,SE,4.6,-,N/A,,Clear,140,2013-03-10 15:55:00
9:15 AM,35.6,28.4,75,30.32,10.0,SE,9.2,-,N/A,,Clear,130,2013-03-10 16:15:00
9:35 AM,42.8,26.6,53,30.33,10.0,SE,11.5,-,N/A,,Clear,140,2013-03-10 16:35:00
9:55 AM,44.6,28.4,53,30.33,10.0,SSE,10.4,-,N/A,,Clear,150,2013-03-10 16:55:00
10:35 AM,50.0,14.0,24,30.32,10.0,ESE,17.3,26.5,N/A,,Clear,110,2013-03-10 17:35:00
10:55 AM,53.6,17.6,24,30.32,10.0,SE,17.3,21.9,N/A,,Clear,130,2013-03-10 17:55:00
11:15 AM,53.6,17.6,24,30.32,10.0,SE,15.0,-,N/A,,Clear,130,2013-03-10 18:15:00
11:35 AM,53.6,17.6,24,30.33,10.0,SE,11.5,-,N/A,,Clear,140,2013-03-10 18:35:00
11:55 AM,55.4,17.6,23,30.34,10.0,SE,9.2,-,N/A,,Clear,140,2013-03-10 18:55:00
12:15 PM,55.4,15.8,21,30.33,10.0,SE,11.5,-,N/A,,Clear,140,2013-03-10 19:15:00
12:35 PM,55.4,15.8,21,30.33,10.0,SE,9.2,-,N/A,,Clear,130,2013-03-10 19:35:00
12:55 PM,55.4,15.8,21,30.32,10.0,SSE,8.1,-,N/A,,Clear,160,2013-03-10 19:55:00
1:15 PM,55.4,14.0,20,30.31,10.0,SE,6.9,-,N/A,,Clear,130,2013-03-10 20:15:00
1:35 PM,57.2,15.8,20,30.30,10.0,SE,5.8,-,N/A,,Clear,130,2013-03-10 20:35:00
1:55 PM,57.2,17.6,21,30.29,10.0,East,8.1,-,N/A,,Clear,100,2013-03-10 20:55:00
2:15 PM,57.2,15.8,20,30.28,10.0,South,3.5,-,N/A,,Clear,170,2013-03-10 21:15:00
2:35 PM,59.0,15.8,19,30.28,10.0,South,3.5,-,N/A,,Clear,190,2013-03-10 21:35:00
2:55 PM,59.0,26.6,29,30.27,10.0,West,6.9,-,N/A,,Clear,280,2013-03-10 21:55:00
3:15 PM,59.0,30.2,34,30.27,10.0,NW,11.5,-,N/A,,Clear,320,2013-03-10 22:15:00
3:35 PM,59.0,32.0,36,30.27,10.0,NNW,10.4,-,N/A,,Clear,330,2013-03-10 22:35:00
3:55 PM,57.2,37.4,48,30.27,10.0,NW,17.3,-,N/A,,Clear,310,2013-03-10 22:55:00
4:15 PM,57.2,37.4,48,30.27,10.0,NW,15.0,-,N/A,,Clear,310,2013-03-10 23:15:00
4:35 PM,55.4,37.4,51,30.26,10.0,NW,15.0,-,N/A,,Clear,310,2013-03-10 23:35:00
4:55 PM,55.4,37.4,51,30.27,10.0,NW,15.0,19.6,N/A,,Clear,320,2013-03-10 23:55:00
5:15 PM,53.6,37.4,54,30.27,10.0,NW,12.7,-,N/A,,Clear,310,2013-03-11 00:15:00
5:35 PM,53.6,35.6,51,30.26,10.0,NW,13.8,-,N/A,,Clear,310,2013-03-11 00:35:00
5:55 PM,53.6,35.6,51,30.27,10.0,NW,15.0,-,N/A,,Clear,320,2013-03-11 00:55:00
6:15 PM,50.0,37.4,62,30.27,10.0,NW,10.4,16.1,N/A,,Clear,310,2013-03-11 01:15:00
6:35 PM,50.0,37.4,62,30.27,10.0,NW,10.4,-,N/A,,Clear,320,2013-03-11 01:35:00
7:15 PM,46.4,37.4,71,30.28,10.0,NW,9.2,-,N/A,,Clear,310,2013-03-11 02:15:00
7:35 PM,44.6,37.4,76,30.28,10.0,NW,9.2,-,N/A,,Clear,310,2013-03-11 02:35:00
7:55 PM,44.6,37.4,76,30.29,10.0,NW,8.1,-,N/A,,Clear,310,2013-03-11 02:55:00
8:15 PM,44.6,37.4,76,30.29,10.0,NW,9.2,-,N/A,,Clear,310,2013-03-11 03:15:00
8:35 PM,41.0,37.4,87,30.29,10.0,NNW,8.1,-,N/A,,Clear,330,2013-03-11 03:35:00
8:55 PM,41.0,37.4,87,30.30,10.0,WSW,4.6,-,N/A,,Clear,240,2013-03-11 03:55:00
9:15 PM,41.0,35.6,81,30.30,10.0,West,6.9,-,N/A,,Clear,270,2013-03-11 04:15:00
9:35 PM,39.2,35.6,87,30.31,10.0,Calm,Calm,-,N/A,,Clear,0,2013-03-11 04:35:00
10:15 PM,39.2,35.6,87,30.31,10.0,Calm,Calm,-,N/A,,Clear,0,2013-03-11 05:15:00
10:35 PM,35.6,32.0,87,30.31,10.0,Calm,Calm,-,N/A,,Clear,0,2013-03-11 05:35:00
11:35 PM,33.8,28.4,81,30.30,10.0,SE,5.8,-,N/A,,Clear,130,2013-03-11 06:35:00
11:55 PM,32.0,28.4,87,30.30,10.0,ESE,3.5,-,N/A,,Clear,120,2013-03-11 06:55:00
12:15 AM,32.0,28.4,87,30.29,10.0,SE,5.8,-,N/A,,Clear,140,2013-03-11 07:15:00
12:35 AM,32.0,26.6,80,30.28,10.0,SE,5.8,-,N/A,,Clear,140,2013-03-11 07:35:00
12:55 AM,32.0,26.6,80,30.28,10.0,SE,5.8,-,N/A,,Clear,140,2013-03-11 07:55:00